Location: Sternwarte ZA, Rosenfeld-Brittheim
(48.2889°N, 8.6789°E)
Time: 06:21:01
(UTC+02:00)

ISS - Pass Details

Date: 21 July 2018
Orbit: 402 x 408 km, 51.6° (Epoch: 23 July)

Event Time Altitude Azimuth Distance (km) Brightness Sun altitude
Rises 02:57:46 0° 291° (WNW) 2,331 0.0 -18.6°
Reaches altitude 10° 02:59:51 10° 293° (WNW) 1,470 -1.0 -18.4°
Maximum altitude 03:03:09 73° 18° (NNE) 430 -3.6 -18.2°
Drops below altitude 10° 03:06:26 10° 105° (ESE) 1,469 -0.9 -18.0°
Sets 03:08:31 0° 107° (ESE) 2,328 0.1 -17.9°
